Location: Juzet
(42.9779°N, 0.7597°E)
Time: 17:20:57
(UTC+00:00)

Cosmos 1441 Rocket - Pass Details

Date: 14 July 2020
Orbit: 495 x 541 km, 81.1° (Epoch: 12 August)

Event Time Altitude Azimuth Distance (km) Brightness Sun altitude
Exits shadow 00:10:32 56° 21° (NNE) 648 3.9 -25.4°
Drops below altitude 10° 00:13:42 10° 12° (NNE) 1,798 7.0 -25.3°
Sets 00:15:51 0° 11° (NNE) 2,687 8.2 -25.3°
